Tracking 35274 objects as of 11-Sep-2026
HD Live streaming from Space Station
objects crossing your sky now

STARLINK-11505

Track STARLINK-11505 now!
10-day predictions
STARLINK-11505 is classified as:


NORAD ID: 62469
Int'l Code: 2024-254H
Launch date: December 31, 2024
Source: United States (US)
Launch site: AIR FORCE EASTERN TEST RANGE (AFETR)
Your satellite tracking list
Your tracking list is empty




NASA's NSSDC Master Catalog

Two Line Element Set (TLE):
1 62469U 24254H   26252.95963575  .00143768  00000-0  11006-2 0  9999
2 62469  43.0005 192.1254 0001582 264.6387  95.4300 15.70926774 98373
Source of the keplerian elements: AFSPC